Orbital Elements at Epoch 2459000.5 (2020-May-31.0) TDB
Reference: JPL 27 (heliocentric ecliptic J2000)
Element | Value | Uncertainty (1-sigma) | Units |
e | .05540722335221174 | 4.5018e-08 | |
a | 2.92931595612835 | 1.9626e-08 | au |
q | 2.767010692677949 | 1.3954e-07 | au |
i | 2.294404411433019 | 5.3365e-06 | deg |
node | 37.23409099124576 | 0.00012495 | deg |
peri | 80.84787838482093 | 0.00014051 | deg |
M | 353.9787559377529 | 6.0557e-05 | deg |
tp | 2459031.128905858512 (2020-Jun-30.62890586) | 0.00030804 | TDB |
period | 1831.25048496193 5.01 | 1.8404e-05 5.039e-08 | d yr |
n | .1965869786554536 | 1.9757e-09 | deg/d |
Q | 3.091621219578752 | 2.0714e-08 | au |
|
| | Orbit Determination Parameters
Additional Information
|